Location: eljas
(40.1958°N, 6.8661°W)
Time: 04:27:09
(UTC+02:00)

Amateur Radio Satellites - All Passes

Search period start: 24 September 2014 03:57
Search period end: 25 September 2014 03:57
Location: eljas, 40.1958°N, 6.8661°W

Satellite Date Start Highest point End Downlink Frequencies (MHz)
Time Altitude Azimuth
KITSAT 1 24 Sep 04:00:13 04:07:02 29° 42° (NE) 04:13:48 435.175 FM
AO-27 24 Sep 04:08:29 04:13:16 36° 98° (E) 04:18:02 436.795 MHz FM
Oscar 16 24 Sep 04:18:28 04:23:39 76° 286° (WNW) 04:28:46 437.025 USB, Beacon 2401.1428
TMSAT-1 24 Sep 04:22:12 04:25:34 17° 91° (E) 04:28:54 436.925 FM
ISS 24 Sep 04:34:55 04:37:21 19° 340° (NNW) 04:39:48 145.800 FM
RS-15 24 Sep 04:46:22 04:56:52 51° 111° (ESE) 05:07:12 29.354 - 29.394 USB, Beacon 29.352 USB
ITAMSAT 1 24 Sep 05:11:24 05:16:32 60° 287° (WNW) 05:21:40 435.822 SSB
Uribyol 2 24 Sep 05:14:28 05:19:33 53° 288° (WNW) 05:24:36 436.500 FM
Oscar 19 24 Sep 05:19:00 05:22:57 23° 295° (WNW) 05:26:52 437.125 CW, 437.150 USB
JAS-1B 24 Sep 05:23:01 05:28:27 47° 290° (WNW) 05:33:58 435.800 - 435.900 CW/SSB
Gurwin Techsat 1B 24 Sep 05:26:30 05:31:51 88° 284° (WNW) 05:37:10 435.225 FM
OPAL 24 Sep 05:32:18 05:36:52 32° 65° (ENE) 05:41:27 ?
AO-Echo 24 Sep 05:34:07 05:38:18 29° 292° (WNW) 05:42:36 ?
AO-27 24 Sep 05:48:14 05:52:37 28° 294° (WNW) 05:57:00 436.795 MHz FM
KITSAT 1 24 Sep 05:55:08 06:03:12 76° 244° (WSW) 06:11:13 435.175 FM
TMSAT-1 24 Sep 06:00:38 06:05:51 59° 287° (WNW) 06:11:02 436.925 FM
SO-50 24 Sep 06:07:06 06:09:09 13° 37° (NE) 06:11:13 436.795 FM
ISS 24 Sep 06:13:51 06:15:05 12° 1° (N) 06:16:20 145.800 FM
AO-7 24 Sep 06:26:03 06:34:04 50° 101° (ESE) 06:42:02 29.400 - 29.500 MHz
Uosat F 24 Sep 06:47:42 06:52:44 68° 102° (ESE) 06:57:44 435.120 FM
RS-15 24 Sep 06:58:45 07:09:16 48° 314° (NW) 07:19:47 29.354 - 29.394 USB, Beacon 29.352 USB
Gurwin Techsat 1B 24 Sep 07:09:09 07:11:00 12° 301° (WNW) 07:12:51 435.225 FM
OPAL 24 Sep 07:11:04 07:15:40 32° 261° (W) 07:20:18 ?
SO-50 24 Sep 07:45:45 07:50:34 71° 56° (ENE) 07:55:26 436.795 FM
ISS 24 Sep 07:50:15 07:52:48 20° 21° (NNE) 07:55:21 145.800 FM
KITSAT 1 24 Sep 07:53:51 07:57:13 13° 261° (W) 08:00:35 435.175 FM
STRAND 1 24 Sep 07:59:13 08:04:04 47° 71° (ENE) 08:08:58 ?
JAS-2 24 Sep 07:59:39 08:05:51 57° 101° (E) 08:12:50 435.800 - 435.900 CW/SSB, 435.910 FM
Hamsat 24 Sep 08:04:29 08:08:37 50° 99° (E) 08:12:40 145.90 MHz
MaSat-1 24 Sep 08:12:42 08:16:42 25° 105° (ESE) 08:20:40 437.345 MHz
AO-7 24 Sep 08:19:13 08:26:35 38° 300° (WNW) 08:33:57 29.400 - 29.500 MHz
Uosat F 24 Sep 08:28:11 08:30:56 15° 299° (WNW) 08:33:40 435.120 FM
UOSAT-12 24 Sep 08:57:51 09:02:12 35° 50° (NE) 09:06:29 437.025 FM, 437.400 FM
RS-15 24 Sep 09:17:42 09:25:17 20° 346° (NNW) 09:32:57 29.354 - 29.394 USB, Beacon 29.352 USB
ISS 24 Sep 09:26:30 09:29:49 75° 219° (SW) 09:33:07 145.800 FM
SO-67 24 Sep 09:27:59 09:31:25 64° 100° (E) 09:34:50 435.3500 MHz FM
SO-50 24 Sep 09:28:12 09:30:34 14° 252° (WSW) 09:32:56 436.795 FM
STRAND 1 24 Sep 09:39:53 09:43:30 20° 267° (W) 09:47:08 ?
Hamsat 24 Sep 09:41:54 09:44:07 14° 295° (WNW) 09:46:20 145.90 MHz
JAS-2 24 Sep 09:45:39 09:50:36 26° 295° (WNW) 09:56:02 435.800 - 435.900 CW/SSB, 435.910 FM
MaSat-1 24 Sep 09:48:30 09:53:11 40° 301° (WNW) 09:57:45 437.345 MHz
HO-68 24 Sep 09:50:41 09:52:43 11° 87° (E) 09:54:45 435.675 MHz FM
UOSAT-12 24 Sep 10:38:14 10:42:13 28° 247° (WSW) 10:46:09 437.025 FM, 437.400 FM
Oscar 11 24 Sep 11:30:32 11:34:07 25° 95° (E) 11:37:41 145.825 FM, Beacon 2401.500 USB
HO-68 24 Sep 11:34:18 11:41:30 75° 105° (ESE) 11:48:40 435.675 MHz FM
RS-15 24 Sep 11:34:58 11:43:17 23° 22° (NNE) 11:51:45 29.354 - 29.394 USB, Beacon 29.352 USB
FUNcube-1 24 Sep 11:35:13 11:36:57 12° 89° (E) 11:38:40 145.950 - 145.970 MHz USB
Sapphire 24 Sep 11:48:37 11:52:15 19° 105° (ESE) 11:55:53 437.095 MHz 1200 baud AX-25 AFSK
UKube-1 24 Sep 11:51:39 11:55:58 56° 101° (E) 12:00:15 145.840 MHz, 145.915 MHz
PCSat 24 Sep 12:13:39 12:18:28 34° 110° (ESE) 12:23:19 145.825 MHz
ZACube-1 24 Sep 12:16:37 12:20:50 34° 97° (E) 12:24:58 437.345 MHz
Oscar 11 24 Sep 13:06:34 13:10:15 28° 291° (WNW) 13:13:55 145.825 FM, Beacon 2401.500 USB
FUNcube-1 24 Sep 13:09:11 13:13:46 64° 285° (WNW) 13:18:14 145.950 - 145.970 MHz USB
HO-68 24 Sep 13:23:16 13:28:28 22° 303° (WNW) 13:33:40 435.675 MHz FM
UKube-1 24 Sep 13:29:29 13:31:41 14° 297° (WNW) 13:33:52 145.840 MHz, 145.915 MHz
Sapphire 24 Sep 13:29:50 13:35:09 59° 302° (WNW) 13:40:31 437.095 MHz 1200 baud AX-25 AFSK
RS-15 24 Sep 13:47:33 13:58:33 61° 52° (NE) 14:09:57 29.354 - 29.394 USB, Beacon 29.352 USB
ZACube-1 24 Sep 13:53:24 13:57:01 23° 293° (WNW) 14:00:35 437.345 MHz
PCSat 24 Sep 13:56:56 14:01:50 34° 308° (NW) 14:06:46 145.825 MHz
Oscar 16 24 Sep 13:57:36 14:01:08 19° 63° (ENE) 14:04:39 437.025 USB, Beacon 2401.1428
JAS-1B 24 Sep 14:17:25 14:23:29 25° 63° (ENE) 14:28:50 435.800 - 435.900 CW/SSB
ITAMSAT 1 24 Sep 14:50:48 14:54:52 24° 65° (ENE) 14:58:58 435.822 SSB
Uribyol 2 24 Sep 14:53:26 14:57:43 27° 66° (ENE) 15:02:01 436.500 FM
Oscar 19 24 Sep 14:55:09 15:00:16 61° 73° (ENE) 15:05:23 437.125 CW, 437.150 USB
AO-Echo 24 Sep 15:08:04 15:12:21 36° 70° (ENE) 15:16:39 ?
Gurwin Techsat 1B 24 Sep 15:09:31 15:12:58 18° 62° (ENE) 15:16:27 435.225 FM
Sapphire 24 Sep 15:18:12 15:19:46 11° 323° (NW) 15:21:19 437.095 MHz 1200 baud AX-25 AFSK
AO-27 24 Sep 15:26:03 15:31:03 51° 71° (ENE) 15:36:04 436.795 MHz FM
Oscar 16 24 Sep 15:34:56 15:40:01 56° 259° (W) 15:45:09 437.025 USB, Beacon 2401.1428
AO-7 24 Sep 15:37:07 15:41:07 15° 47° (NE) 15:45:06 29.400 - 29.500 MHz
TMSAT-1 24 Sep 15:42:13 15:46:30 26° 66° (ENE) 15:50:48 436.925 FM
RS-15 24 Sep 16:00:28 16:10:25 39° 252° (WSW) 16:20:47 29.354 - 29.394 USB, Beacon 29.352 USB
JAS-1B 24 Sep 16:05:23 16:13:43 66° 257° (WSW) 16:20:41 435.800 - 435.900 CW/SSB
Uosat F 24 Sep 16:26:12 16:27:24 11° 59° (ENE) 16:28:36 435.120 FM
ITAMSAT 1 24 Sep 16:29:15 16:34:06 41° 261° (W) 16:39:00 435.822 SSB
Uribyol 2 24 Sep 16:32:16 16:37:01 36° 262° (W) 16:41:48 436.500 FM
Oscar 19 24 Sep 16:36:55 16:39:59 16° 269° (W) 16:43:05 437.125 CW, 437.150 USB
Oscar 10/S400 24 Sep 16:43:34 17:00:42 32° 149° (SSE) 17:20:34 145.825 - 145.975 CW/USB, Beacon 145.810 USB
Gurwin Techsat 1B 24 Sep 16:47:12 16:52:26 60° 259° (W) 16:57:42 435.225 FM
AO-Echo 24 Sep 16:47:38 16:51:14 22° 266° (W) 16:54:50 ?
Saudisat 1A 24 Sep 17:00:23 17:04:10 29° 114° (ESE) 17:07:59 436.775 MHz
AO-27 24 Sep 17:07:18 17:10:50 19° 267° (W) 17:14:24 436.795 MHz FM
TMSAT-1 24 Sep 17:21:16 17:26:12 39° 262° (W) 17:31:10 436.925 FM
AO-7 24 Sep 17:24:09 17:32:19 64° 67° (ENE) 17:40:29 29.400 - 29.500 MHz
Uosat F 24 Sep 18:00:24 18:05:23 88° 74° (ENE) 18:10:25 435.120 FM
MaSat-1 24 Sep 18:05:28 18:08:48 32° 57° (ENE) 18:11:41 437.345 MHz
JAS-2 24 Sep 18:14:24 18:17:51 18° 62° (ENE) 18:21:20 435.800 - 435.900 CW/SSB, 435.910 FM
KITSAT 1 24 Sep 18:31:26 18:35:52 16° 100° (E) 18:40:18 435.175 FM
Saudisat 1A 24 Sep 18:39:48 18:43:41 30° 311° (NW) 18:47:36 436.775 MHz
Hamsat 24 Sep 18:57:11 19:01:07 34° 71° (ENE) 19:05:02 145.90 MHz
AO-7 24 Sep 19:18:49 19:25:34 27° 265° (W) 19:32:22 29.400 - 29.500 MHz
OPAL 24 Sep 19:20:53 19:26:02 72° 105° (ESE) 19:31:04 ?
MaSat-1 24 Sep 19:43:30 19:44:56 12° 259° (W) 19:46:17 437.345 MHz
JAS-2 24 Sep 19:57:30 20:02:33 51° 260° (W) 20:07:39 435.800 - 435.900 CW/SSB, 435.910 FM
SO-67 24 Sep 20:01:03 20:03:33 19° 70° (ENE) 20:06:04 435.3500 MHz FM
STRAND 1 24 Sep 20:11:30 20:14:46 17° 92° (E) 20:18:00 ?
KITSAT 1 24 Sep 20:21:58 20:30:03 85° 118° (ESE) 20:38:11 435.175 FM
Hamsat 24 Sep 20:33:53 20:37:08 20° 266° (W) 20:40:23 145.90 MHz
Sapphire 24 Sep 20:36:09 20:39:37 17° 43° (NE) 20:43:04 437.095 MHz 1200 baud AX-25 AFSK
OPAL 24 Sep 21:01:25 21:04:16 15° 302° (WNW) 21:07:06 ?
PCSat 24 Sep 21:01:55 21:06:30 27° 50° (NE) 21:11:03 145.825 MHz
SO-67 24 Sep 21:33:43 21:36:27 22° 265° (W) 21:39:12 435.3500 MHz FM
STRAND 1 24 Sep 21:49:15 21:54:17 56° 288° (WNW) 21:59:18 ?
SO-50 24 Sep 22:01:04 22:04:42 25° 112° (ESE) 22:08:25 436.795 FM
HO-68 24 Sep 22:01:59 22:08:50 53° 67° (ENE) 22:15:44 435.675 MHz FM
Sapphire 24 Sep 22:18:17 22:23:45 84° 243° (WSW) 22:29:10 437.095 MHz 1200 baud AX-25 AFSK
KITSAT 1 24 Sep 22:19:55 22:26:26 26° 320° (NW) 22:32:59 435.175 FM
Oscar 11 24 Sep 22:25:33 22:28:42 20° 67° (ENE) 22:31:51 145.825 FM, Beacon 2401.500 USB
PCSat 24 Sep 22:44:56 22:50:06 46° 248° (WSW) 22:55:14 145.825 MHz
UKube-1 24 Sep 22:46:34 22:50:41 45° 72° (ENE) 22:54:51 145.840 MHz, 145.915 MHz
UOSAT-12 24 Sep 23:12:08 23:13:06 11° 106° (ESE) 23:14:05 437.025 FM, 437.400 FM
ZACube-1 24 Sep 23:12:46 23:16:29 27° 68° (ENE) 23:20:18 437.345 MHz
SO-50 24 Sep 23:40:56 23:45:04 36° 310° (NW) 23:49:20 436.795 FM
HO-68 24 Sep 23:50:48 23:56:48 29° 265° (W) 00:02:50 435.675 MHz FM
Oscar 11 25 Sep 00:00:35 00:04:37 37° 262° (W) 00:08:41 145.825 FM, Beacon 2401.500 USB
FUNcube-1 25 Sep 00:04:33 00:09:00 86° 257° (WSW) 00:13:36 145.950 - 145.970 MHz USB
UKube-1 25 Sep 00:24:35 00:27:07 15° 267° (W) 00:29:40 145.840 MHz, 145.915 MHz
KITSAT 1 25 Sep 00:24:49 00:25:24 10° 349° (N) 00:25:58 435.175 FM
UOSAT-12 25 Sep 00:47:54 00:52:31 81° 302° (WNW) 00:57:15 437.025 FM, 437.400 FM
ZACube-1 25 Sep 00:48:56 00:52:47 28° 265° (W) 00:56:44 437.345 MHz
Saudisat 1A 25 Sep 01:27:25 01:30:58 23° 46° (NE) 01:34:29 436.775 MHz
PANSAT 25 Sep 01:29:58 01:31:44 13° 172° (S) 01:33:31 not established
ISS 25 Sep 02:08:11 02:11:23 47° 138° (SE) 02:14:36 145.800 FM
KITSAT 1 25 Sep 02:22:03 02:25:26 13° 21° (NNE) 02:28:48 435.175 FM
UOSAT-12 25 Sep 02:31:08 02:33:27 13° 322° (NW) 02:35:46 437.025 FM, 437.400 FM
Saudisat 1A 25 Sep 03:06:32 03:10:42 41° 244° (WSW) 03:14:49 436.775 MHz
Oscar 19 25 Sep 03:08:10 03:12:09 22° 94° (E) 03:16:05 437.125 CW, 437.150 USB
PANSAT 25 Sep 03:09:15 03:11:11 14° 185° (S) 03:13:07 not established
AO-Echo 25 Sep 03:17:05 03:19:12 13° 91° (E) 03:21:20 ?
AO-27 25 Sep 03:40:33 03:44:15 19° 93° (E) 03:47:56 436.795 MHz FM
ISS 25 Sep 03:45:25 03:48:14 25° 335° (NNW) 03:51:03 145.800 FM
